• In Latvia
  • List of Countries
  • For 7 days
  • Water Temperature
  • Satellite Maps
  • Weather Map
  • Weather Widgets
  • user-avatar
    Login

    Hourly Weather Stroitel

    Today, 16 November, Friday

    Time Temperature Precipitation Wind Pressure Humidity
    00:00 -5°C° 0 mm 2 mps 768 mmHg 31%
    01:00 -5°C° 0 mm 2 mps 769 mmHg 31%
    02:00 -5°C° 0 mm 2 mps 769 mmHg 31%
    03:00 -6°C° 0 mm 2 mps 769 mmHg 31%
    04:00 -6°C° 0 mm 2 mps 769 mmHg 31%
    05:00 -6°C° 0 mm 2 mps 769 mmHg 30%
    06:00 -6°C° 0 mm 2 mps 770 mmHg 30%
    07:00 -6°C° 0 mm 3 mps 770 mmHg 28%
    08:00 -6°C° 0 mm 3 mps 770 mmHg 27%
    09:00 -6°C° 0 mm 3 mps 770 mmHg 26%
    10:00 -4°C° 0 mm 3 mps 770 mmHg 23%
    11:00 -2°C° 0 mm 3 mps 770 mmHg 21%
    12:00 -1°C° 0 mm 3 mps 770 mmHg 19%
    13:00 -1°C° 0 mm 3 mps 770 mmHg 20%
    14:00 -1°C° 0 mm 3 mps 770 mmHg 21%
    15:00 -1°C° 0 mm 3 mps 770 mmHg 21%
    16:00 -2°C° 0 mm 3 mps 770 mmHg 23%
    17:00 -2°C° 0 mm 3 mps 770 mmHg 24%
    18:00 -3°C° 0 mm 2 mps 770 mmHg 26%
    19:00 -3°C° 0 mm 2 mps 770 mmHg 25%
    20:00 -3°C° 0 mm 2 mps 770 mmHg 25%
    21:00 -4°C° 0 mm 2 mps 770 mmHg 25%
    22:00 -4°C° 0 mm 2 mps 770 mmHg 25%
    23:00 -4°C° 0 mm 2 mps 770 mmHg 24%

    Tomorrow, 17 November, Saturday

    Time Temperature Precipitation Wind Pressure Humidity
    00:00 -4°C° 0 mm 2 mps 770 mmHg 24%
    01:00 -4°C° 0 mm 2 mps 770 mmHg 24%
    02:00 -2°C° 0 mm 1 mps 769 mmHg 24%
    03:00 -2°C° 0 mm 1 mps 769 mmHg 23%
    04:00 -2°C° 0 mm 1 mps 769 mmHg 23%
    05:00 -2°C° 0 mm 1 mps 769 mmHg 23%
    06:00 -2°C° 0 mm 1 mps 768 mmHg 23%
    07:00 -2°C° 0 mm 1 mps 768 mmHg 22%
    08:00 -2°C° 0 mm 1 mps 768 mmHg 22%
    09:00 -2°C° 0 mm 1 mps 768 mmHg 21%
    10:00 0°C° 0 mm 1 mps 767 mmHg 20%
    11:00 +1°C° 0 mm 1 mps 767 mmHg 18%
    12:00 +2°C° 0 mm 1 mps 767 mmHg 17%
    13:00 +2°C° 0 mm 1 mps 766 mmHg 18%
    14:00 +2°C° 0 mm 1 mps 765 mmHg 20%
    15:00 +2°C° 0 mm 1 mps 765 mmHg 21%
    16:00 -1°C° 0 mm 2 mps 764 mmHg 22%
    17:00 -2°C° 0 mm 2 mps 764 mmHg 23%
    18:00 -2°C° 0 mm 2 mps 763 mmHg 24%
    19:00 -3°C° 0 mm 2 mps 763 mmHg 24%
    20:00 -3°C° 0 mm 2 mps 762 mmHg 24%
    21:00 -3°C° 0 mm 2 mps 761 mmHg 23%
    22:00 -4°C° 0 mm 3 mps 761 mmHg 23%
    23:00 -4°C° 0 mm 3 mps 760 mmHg 24%

    Day after tomorrow, 18 November, Sunday

    Time Temperature Precipitation Wind Pressure Humidity
    00:00 -4°C° 0 mm 3 mps 759 mmHg 24%
    01:00 -4°C° 0 mm 3 mps 759 mmHg 24%
    02:00 -4°C° 0 mm 3 mps 758 mmHg 23%
    03:00 -4°C° 0 mm 3 mps 758 mmHg 23%
    04:00 -4°C° 0 mm 3 mps 757 mmHg 23%
    05:00 -5°C° 0 mm 3 mps 756 mmHg 23%
    06:00 -5°C° 0 mm 3 mps 755 mmHg 23%
    07:00 -5°C° 0 mm 3 mps 755 mmHg 23%
    08:00 -4°C° 0 mm 4 mps 755 mmHg 23%
    09:00 -4°C° 0 mm 4 mps 755 mmHg 22%
    10:00 -3°C° 0 mm 4 mps 755 mmHg 22%
    11:00 -2°C° 0 mm 4 mps 754 mmHg 22%
    12:00 -2°C° 0 mm 4 mps 754 mmHg 23%
    13:00 -2°C° 0 mm 4 mps 754 mmHg 25%
    14:00 -1°C° 0 mm 3 mps 754 mmHg 28%
    15:00 -1°C° 0 mm 3 mps 754 mmHg 30%
    16:00 -1°C° 0 mm 3 mps 754 mmHg 34%
    17:00 -2°C° 0 mm 3 mps 754 mmHg 38%
    18:00 -4°C° 0 mm 3 mps 754 mmHg 41%
    19:00 -3°C° 0 mm 2 mps 754 mmHg 43%
    20:00 -3°C° 0 mm 2 mps 754 mmHg 44%
    21:00 -3°C° 0 mm 2 mps 754 mmHg 45%
    22:00 -3°C° 0 mm 2 mps 755 mmHg 46%
    23:00 -4°C° 0 mm 2 mps 755 mmHg 46%

    19 November, Monday

    Time Temperature Precipitation Wind Pressure Humidity
    00:00 -4°C° 0 mm 2 mps 755 mmHg 47%
    01:00 -4°C° 0 mm 2 mps 755 mmHg 47%
    02:00 -4°C° 0 mm 2 mps 756 mmHg 48%
    03:00 -4°C° 0 mm 2 mps 756 mmHg 48%
    04:00 -4°C° 0 mm 2 mps 756 mmHg 48%
    05:00 -4°C° 0 mm 2 mps 756 mmHg 48%
    06:00 -5°C° 0 mm 2 mps 757 mmHg 48%
    07:00 -4°C° 0 mm 2 mps 757 mmHg 48%
    08:00 -4°C° 0 mm 2 mps 758 mmHg 47%
    09:00 -4°C° 0 mm 2 mps 758 mmHg 46%
    10:00 -3°C° 0 mm 2 mps 759 mmHg 43%
    11:00 -2°C° 0 mm 2 mps 759 mmHg 39%
    12:00 -1°C° 0 mm 2 mps 759 mmHg 36%
    13:00 -1°C° 0 mm 2 mps 760 mmHg 36%
    14:00 -1°C° 0 mm 2 mps 760 mmHg 37%
    15:00 -1°C° 0 mm 2 mps 761 mmHg 37%
    16:00 -1°C° 0 mm 2 mps 761 mmHg 38%
    17:00 -2°C° 0 mm 2 mps 761 mmHg 39%
    18:00 -3°C° 0 mm 2 mps 762 mmHg 41%
    19:00 -4°C° 0 mm 3 mps 762 mmHg 39%
    20:00 -4°C° 0 mm 3 mps 762 mmHg 38%
    21:00 -4°C° 0 mm 3 mps 762 mmHg 37%
    22:00 -4°C° 0 mm 3 mps 763 mmHg 37%
    23:00 -4°C° 0 mm 3 mps 763 mmHg 37%

    20 November, Tuesday

    Time Temperature Precipitation Wind Pressure Humidity
    00:00 -3°C° 0 mm 2 mps 763 mmHg 36%
    01:00 -3°C° 0 mm 2 mps 763 mmHg 36%
    02:00 -5°C° 0 mm 3 mps 763 mmHg 36%
    03:00 -5°C° 0 mm 3 mps 763 mmHg 36%
    04:00 -5°C° 0 mm 3 mps 763 mmHg 36%
    05:00 -5°C° 0 mm 3 mps 763 mmHg 36%
    06:00 -5°C° 0 mm 3 mps 763 mmHg 36%
    07:00 -5°C° 0 mm 3 mps 763 mmHg 35%
    08:00 -5°C° 0 mm 3 mps 763 mmHg 35%
    09:00 -4°C° 0 mm 3 mps 763 mmHg 34%
    10:00 -4°C° 0 mm 3 mps 763 mmHg 32%
    11:00 -2°C° 0 mm 3 mps 763 mmHg 31%
    12:00 -1°C° 0 mm 3 mps 763 mmHg 29%
    13:00 -1°C° 0 mm 3 mps 763 mmHg 30%
    14:00 -1°C° 0 mm 3 mps 763 mmHg 30%
    15:00 -1°C° 0 mm 3 mps 762 mmHg 31%
    16:00 -2°C° 0 mm 3 mps 762 mmHg 32%
    17:00 -2°C° 0 mm 3 mps 762 mmHg 33%
    18:00 -2°C° 0 mm 3 mps 762 mmHg 34%
    19:00 -2°C° 0 mm 3 mps 762 mmHg 34%
    20:00 -4°C° 0 mm 3 mps 761 mmHg 34%
    21:00 -4°C° 0 mm 3 mps 761 mmHg 34%
    22:00 -4°C° 0 mm 3 mps 761 mmHg 34%
    23:00 -4°C° 0 mm 3 mps 761 mmHg 35%

    21 November, Wednesday

    Time Temperature Precipitation Wind Pressure Humidity
    00:00 -4°C° 0 mm 3 mps 761 mmHg 35%
    01:00 -4°C° 0 mm 3 mps 761 mmHg 38%
    02:00 -4°C° 0 mm 3 mps 760 mmHg 41%
    03:00 -3°C° 0 mm 2 mps 760 mmHg 43%
    04:00 -4°C° 0 mm 3 mps 760 mmHg 47%
    05:00 -4°C° 0 mm 3 mps 759 mmHg 50%
    06:00 -4°C° 0 mm 3 mps 759 mmHg 54%
    07:00 -4°C° 0 mm 3 mps 759 mmHg 55%
    08:00 -4°C° 0 mm 3 mps 759 mmHg 57%
    09:00 -2°C° 0 mm 3 mps 759 mmHg 59%
    10:00 -2°C° 0 mm 3 mps 758 mmHg 58%
    11:00 -3°C° 0 mm 4 mps 758 mmHg 58%
    12:00 -2°C° 0 mm 4 mps 758 mmHg 57%
    13:00 -2°C° 0 mm 4 mps 757 mmHg 56%
    14:00 -2°C° 0 mm 4 mps 757 mmHg 56%
    15:00 -2°C° 0 mm 4 mps 756 mmHg 55%
    16:00 -2°C° 0 mm 4 mps 756 mmHg 57%
    17:00 -3°C° 0 mm 4 mps 756 mmHg 58%
    18:00 -3°C° 0 mm 4 mps 755 mmHg 59%
    19:00 -3°C° 0.2 mm 4 mps 755 mmHg 63%
    20:00 -3°C° 0.2 mm 4 mps 755 mmHg 66%
    21:00 -4°C° 0.2 mm 5 mps 754 mmHg 70%
    22:00 -4°C° 0.6 mm 5 mps 754 mmHg 74%
    23:00 -4°C° 0.6 mm 5 mps 753 mmHg 78%
    Show more